Tracking 19717 objects as of 25-Jun-2019
HD Live streaming from Space Station
objects crossing your sky now

DELTA 1 DEB

Track DELTA 1 DEB now!
10-day predictions


NORAD ID: 12171
Int'l Code: 1978-026L
Perigee: 863.0 km
Apogee: 916.2 km
Inclination: 99.0 °
Period: 102.6 minutes
Semi major axis: 7260 km
RCS: 0.8162 m2 (medium)
Launch date: March 5, 1978
Source: United States (US)
Launch site: AIR FORCE WESTERN TEST RANGE (AFWTR)

Note: This is SATELLITE DEBRIS
aabbcc
Your satellite tracking list
Your tracking list is empty




NASA's NSSDC Master Catalog

Two Line Element Set (TLE):
1 12171U 78026L   19175.80408194 -.00000181 +00000-0 -86982-4 0  9991
2 12171 099.0079 137.6463 0036698 326.8735 068.3127 14.03280200964831
Source of the keplerian elements: AFSPC